CZ-6A DEB

Satellite information

Favourite Embed

Satellite Type and Status

DEBRISIN ORBIT

Key statistics

Satellite CZ-6A DEB at a glance.

Uptime

1076

Days in orbit

Revolutions

≈ 14.1

Per day

Orbit

SSO

Sun Synchronous Orbit

Inclination

98.8

Latest

Satellite identification and parameters

Extended collection of information and parameters for CZ-6A DEB.

Object identification

Identified? True

Debris? True

Object name: CZ-6A DEB

International designator: 2022-151AAE

Object number (NORAD): 55882

Object ID (CCSDS): 55882

Country: PEOPLES REPUBLIC OF CHINA (PRC)

Current information (Y/N): Y

RCS size: SMALL

Orbital parameters

Period: 101.778 minutes

Inclination: 98.822 deg

SMA: 7220.988 km

Apoapsis: 876.152 km

Periapsis: 809.555 km

RAAN: 294.944 deg

Eccentricy: 0.00461138

Argument of periapsis: 296.8807 deg

Mean anomaly: 62.7657 deg

Mean motion: 14.14841511 rev/day

Mean motion (dot): 0.00003118 rev/day2

B* drag term: 0.0016216558 1/REarth

Two-line elements (TLE)

Creation date: Oct. 21, 2025, 6:24 p.m.

Reference frame: TEME

Reference center: EARTH

Epoch: Oct. 20, 2025, 11:14 p.m. UTC

TLE line 0: 0 CZ-6A DEB

TLE line 1: 1 55882U 22151AAE 25293.96829116 .00003118 00000-0 16217-2 0 9994

TLE line 2: 2 55882 98.8220 294.9440 0046114 296.8807 62.7657 14.14841511139249

Live tracking on map

Real-time ground track for satellite CZ-6A DEB.

In-orbit conjunctions

A list of the most updated potential collisions computed for object CZ-6A DEB.

Target Orbit TCA Probability of collision Miss distance Type
SL-14 DEB LEO 2025-09-25 21:57:12 0.0001117191 97.0 (m) DEBRIS
FENGYUN 1C DEB SSO 2025-02-17 09:29:45 0.0001103329 30.0 (m) DEBRIS
FENGYUN 1C DEB SSO 2025-01-31 18:08:04 0.0001085904 68.0 (m) DEBRIS
SL-16 DEB LEO 2025-01-16 07:39:09 0.0001772061 199.0 (m) DEBRIS
SL-3 R/B LEO 2024-08-18 11:46:16 0.003439515 31.0 (m) ROCKET BODY

Associated space launch

Chinese satellite reported for atmospheric/ocean/environmental/spatial parameter research purposes, details TBD.

CZ-6A DEB was lifted into orbit during the mission ‘Long March 6A | Yunhai 3’, on board a Long March 6A space rocket.

The launch took place on Nov. 11, 2022, 10:52 p.m. from Launch Complex 9A.

For more information about the launch, click the button.

Launch to space Long March 6A | Yunhai 3
Long March 6A | Yunhai 3

Agency: N/A

Status: Launch Successful

Launch date: Nov. 11, 2022, 10:52 p.m. UTC

Rocket: Long March 6A

Launch pad: Launch Complex 9A

Location: Taiyuan Satellite Launch Center, People's Republic of China

...

Latest news about this satellite

There are no fresh news available about this satellite. Check back as we update our databases every day.


Newsletter sign-up

Weekly statistics, charts and insights to help you stay on top of the space industry.